Location: Gombori
(14.9797°N, 2.9419°W)
Time: 08:10:33
(UTC+00:00)

Cosmos 1538 Rocket - Pass Details

Date: 29 July 2021
Orbit: 752 x 792 km, 74.0° (Epoch: 23 September)

Event Time Altitude Azimuth Distance (km) Brightness Sun altitude
Rises 19:44:36 0° 182° (S) 3,243 7.0 -14.8°
Reaches altitude 10° 19:47:02 10° 178° (S) 2,311 6.2 -15.3°
Maximum altitude 19:52:08 53° 102° (ESE) 935 4.1 -16.4°
Drops below altitude 10° 19:57:10 10° 26° (NNE) 2,288 6.5 -17.5°
Sets 19:59:34 0° 21° (NNE) 3,208 7.3 -18.0°
